Regional Weather Roundup
Issued by NWS Boston, MA

Home | Current Version | Previous Version | Text Only | Print | Product List | Glossary On
Versions: 1 2 3 4 5 6 7 8 9 10 11 12 13 14 15 16 17 18 19 20 21 22 23 24 25 26 27 28 29 30 31 32 33 34 35 36 37 38 39 40 41 42 43 44 45 46 47 48 49 50
000
ASUS41 KBOX 202110
RWRBOX

REGIONAL WEATHER ROUNDUP
NATIONAL WEATHER SERVICE TAUNTON MA
500 PM EDT WED AUG 20 2014

NOTE:  "FAIR" INDICATES FEW OR NO CLOUDS BELOW 12,000 FEET WITH NO
SIGNIFICANT WEATHER AND/OR OBSTRUCTIONS TO VISIBILITY.  THE FOLLOWING
OBSERVATION LOCATIONS DO NOT REPORT PRESENT WEATHER...PROVINCETOWN...
SMITHFIELD...BLOCK ISLAND...KEENE...AND OXFORD.

MAZALL-202200-
EASTERN MASSACHUSETTS

CITY           SKY/WX    TMP DP  RH WIND       PRES   REMARKS
BOSTON         MOSUNNY   71  60  68 E10       30.03R
BEVERLY        SUNNY     71  55  56 SE8       30.03R
LAWRENCE       SUNNY     77  59  53 SE8       30.04R
BEDFORD        SUNNY     75  57  53 E9        30.01R
BLUE HILL      NOT AVBL
NORWOOD        SUNNY     78  49  35 NE8       30.01R
MARSHFIELD     SUNNY     72  63  73 E7        30.04S
PLYMOUTH       SUNNY     73  59  61 NE7       30.02S
TAUNTON        SUNNY     78  49  35 E8        30.00S
NEW BEDFORD    SUNNY     75  60  59 SE12      30.00R
$$

MAZALL-202200-
CAPE COD AND THE ISLANDS

CITY           SKY/WX    TMP DP  RH WIND       PRES   REMARKS
FALMOUTH       MOSUNNY   73  59  60 NE9       30.02R
HYANNIS        SUNNY     76  58  53 N7        30.00S
CHATHAM        SUNNY     71  58  63 NE7       30.03R
PROVINCETOWN   SUNNY     72  59  64 MISG      30.03S
NANTUCKET      MOSUNNY   69  59  70 NE14      30.00F
MARTHAS VNYRD  SUNNY     73  57  57 E10       30.01R
$$

MAZALL-202200-
CENTRAL AND WESTERN MASSACHUSETTS

CITY           SKY/WX    TMP DP  RH WIND       PRES   REMARKS
WORCESTER      SUNNY     77  55  46 E7        30.03R
FITCHBURG      SUNNY     82  54  37 SE6       30.01R
ORANGE         SUNNY     81  58  45 VRB5      29.99S
SPRINGFIELD    MOSUNNY   83  61  46 VRB3      29.97S
WESTFIELD      MOSUNNY   82  59  45 S3        29.98R
NORTH ADAMS    PTSUNNY   77  65  66 VRB5      29.98R
PITTSFIELD     PTSUNNY   75  64  68 SE6       29.99R
$$

RIZALL-202200-
RHODE ISLAND

CITY           SKY/WX    TMP DP  RH WIND       PRES   REMARKS
PROVIDENCE     MOSUNNY   76  61  59 S12       30.01R
NEWPORT        SUNNY     72  59  63 SE8       30.01S
BLOCK ISLAND   SUNNY     72  59  64 SE7       30.02R
SMITHFIELD     MOSUNNY   79  55  44 E9        30.01R
WESTERLY       SUNNY     73  60  63 S7        30.02R
$$

CTZALL-202200-
CONNECTICUT

CITY           SKY/WX    TMP DP  RH WIND       PRES   REMARKS
BRADLEY INTL   PTSUNNY   83  57  41 SW5       29.97R
HARTFORD       MOSUNNY   82  58  43 SE6       29.97R
BRIDGEPORT     SUNNY     78  61  55 E8        29.99R
DANBURY        SUNNY     80  62  54 SE9       30.00R
GROTON         SUNNY     73  64  73 SE9       30.00R
NEW HAVEN      MOSUNNY   81  58  45 S7        29.99S
CHESTER        FAIR      79  57  47 S6        30.01S
MERIDEN        MOSUNNY   82  57  42 S8        29.98R
WILLIMANTIC    MOSUNNY   82  58  43 NE3       29.99R
OXFORD         MOSUNNY   79  63  57 S8        30.03R
$$

MEZ002-015-021-024-NHZ003-005-008-011-012-014-VTZ005-008-202200-
NORTHERN NEW ENGLAND

CITY           SKY/WX    TMP DP  RH WIND       PRES   REMARKS
PORTLAND ME    PTSUNNY   73  56  54 S8        30.03R
BANGOR ME      PTSUNNY   80  55  42 W3        30.01R
CONCORD NH     SUNNY     78  57  48 SE7       30.01R
MANCHESTER NH  PTSUNNY   81  58  45 E9        29.99R
NASHUA NH      SUNNY     81  56  42 E8        30.01R
PORTSMOUTH NH  PTSUNNY   72  57  60 SE9       30.03R
JAFFREY NH     MOSUNNY   78  56  46 VRB3      30.03S
KEENE NH       PTSUNNY   79  57  47 E3        30.00R
BURLINGTON VT  MOSUNNY   83  60  45 E8        29.96S
MT. WASHINGTON NOT AVBL
$$

NYZ052-076-202200-
EASTERN NEW YORK

CITY           SKY/WX    TMP DP  RH WIND       PRES   REMARKS
ALBANY         PTSUNNY   82  65  56 S6        29.95R
NEW YORK CITY  MOSUNNY   81  55  40 S8        29.98R
$$

ANZALL-202200-
MARINE OBSERVATIONS

STATION/POSITION TIME  TEMP    WIND        PRES    VSBY  WAVE
                       AIR SEA DIR/SP/G                  HT/PER
                 (UTC) (F)     (DEG/KT/KT) (MB)    (MI)  (FT/S)
BOSTON BUOY      2050   67 67  110/  4/  6 1017.3R         1
BUZZARDS BAY     2000          160/  9/  9 1017.0R
NANTUCKET SOUND  2050   67 72   60/  8/ 10 1016.3R         0
MASS BAY-STELLWA 2004   68 69  140/  6/  6   N/A    1 7/8  1/ 6
ISLE OF SHOALS   2100   66     160/  6/  7 1016.8R
S OF BLOCK IS    2038      71                N/A           2/ 7
$$

......................KEY.........................
  SKY/WX - SKY CONDITION/PRESENT WEATHER
  TMP    - TEMPERATURE IN FAHRENHEIT
  DWPT   - DEWPOINT IN FAHRENHEIT
  RH     - RELATIVE HUMIDITY IN PERCENT
  WIND   - DIRECTION AND SPEED IN MPH
  PRES   - MEAN SEA LEVEL PRESSURE IN INCHES OF HG
  WCI    - WIND CHILL INDEX
  VSB    - VISIBILITY IN MILES
  HX     - HEAT INDEX
  TC     - TEMPERATURE IN CELSIUS
  VRB    - VARIABLE WIND DIRECTION
  N/A    - NOT AVAILABLE


USA.gov is the U.S. government's official web portal to all federal, state and local government web resources and services.